www.pogodaiklimat.ru

Погода и климат >> Архив погоды >> Россия >> Якутия >> Крест-Хальджай


ПОГОДА в Крест-Хальджае

  • Прогноз погоды в Крест-Хальджае
  • Монитор погоды в Крест-Хальджае

АРХИВ ПОГОДЫ в Крест-Хальджае

Время (UTC), дата Ветер
(напр.,м/с)
 
Видим.   Явления Облачность Т
(С)
Тd
(С)
f
(%)
Тe
(С)
Тes
(С)
Комфортность P
(гПа)
Po
(гПа)
Тmin
(С)
Tmax
(С)
R
(мм)
R24
(мм)
S
(см)
09 15.08 В 2 50 км 6/0
[Ci fib]
+26.5 +2.3 21 +25 +26 комфорт 1010.6 997.5 +27.5
12 15.08 ЮВ 1 50 км 6/0
[Ac trans Ci fib]
+17.9 +6.7 48 +19 +19 1013.1 999.5
15 15.08 штиль 0 50 км 6/0
[Ci fib]
+13.1 +9.4 78 +13 +13 1013.7 1000.0
18 15.08 СВ 1 50 км 6/0
[Ci fib]
+10.4 +9.6 95 +10 +10 1011.5 1001.1
21 15.08 СВ 1 50 км 4/0
[Ci fib]
+9.6 +8.8 95 +9 +10 1015.9 1001.9 +9.6
00 16.08 ЮВ 1 50 км 4/0
[Ci fib]
+17.0 +8.9 59 +18 +24 1015.9 1002.4
03 16.08 ЮВ 3 50 км 8/0
[As trans Ci fib]
+23.2 +5.3 31 +23 +28 комфорт 1015.8 1002.6
06 16.08 ЮВ 2 50 км 10/0
[As op]
+19.3 +8.5 50 +21 +22 комфорт 1016.7 1003.2
09 16.08 С 1 50 км {дождь} 10/0
[As op]
+17.5 +12.9 74 +19 +19 1016.3 1002.8 +23.3 0.7
12 16.08 С 1 50 км {дождь} 10/0
[As op]
+13.3 +10.2 81 +13 +13 1017.0 1003.3
15 16.08 В 1 50 км ясно +11.2 +10.2 94 +11 +11 1017.1 1003.3
18 16.08 В 1 50 км ясно +10.4 +9.2 92 +10 +10 1017.2 1003.3
21 16.08 В 1 50 км 10/0
[As op]
+12.0 +9.6 85 +12 +12 1017.6 1003.8 +10.0
00 17.08 В 1 50 км 8/0
[Ci fib]
+17.5 +9.5 59 +19 +24 1017.5 1004.0
03 17.08 В 1 50 км 8/0
[Ci fib]
+22.5 +9.4 43 +24 +33 комфорт 1017.4 1004.0
06 17.08 В 2 50 км 8/0
[Ci fib]
+25.5 +5.4 27 +25 +30 комфорт 1016.6 1003.4
09 17.08 В 2 50 км 10/0
[Ci fib]
+25.4 +6.4 30 +25 +26 комфорт 1015.1 1002.0 +25.6
12 17.08 штиль 0 50 км 10/0
[Ci fib]
+20.3 +6.2 40 +21 +21 комфорт 1014.4 1001.0
15 17.08 штиль 0 50 км 10/0
[Ci fib]
+16.0 +6.7 54 +16 +16 1014.8 1001.2
18 17.08 штиль 0 50 км 10/0
[Ci fib]
+13.0 +6.2 63 +13 +13 1014.6 1001.2
21 17.08 штиль 0 50 км 10/0
[As op]
+13.7 +11.1 84 +13 +13 1017.3 1003.6 +13.3
00 18.08 штиль 0 50 км 10/0
[As op]
+14.8 +11.3 80 +15 +16 1017.8 1004.1
03 18.08 СВ 1 50 км мгла 10/0
[Ci fib]
+19.2 +9.4 53 +21 +30 комфорт 1016.6 1003.1
06 18.08 ЮВ 1 50 км мгла ясно +22.6 +9.5 43 +24 +31 комфорт 1016.2 1002.8
09 18.08 ЮВ 1 50 км 10/0
[As op]
+22.0 +7.1 38 +23 +23 комфорт 1016.0 1002.6 +22.6
12 18.08 В 1 50 км 10/0
[As op]
+19.1 +5.5 41 +21 +21 комфорт 1016.7 1003.2
15 18.08 штиль 0 50 км 10/0
[As op]
+15.8 +10.1 69 +16 +16 1017.6 1003.9
18 18.08 штиль 0 50 км 10/0
[As op]
+11.4 +10.4 94 +11 +11 1017.6 1003.7
21 18.08 штиль 0 50 км 10/0
[Ac As]
+12.6 +11.3 92 +12 +12 1018.2 1004.4 +11.4
00 19.08 В 1 50 км 10/0
[As op]
+16.0 +8.1 59 +17 +18 1019.7 1006.1
03 19.08 ЮВ 3 50 км 10/0
[Ac trans Ci fib]
+18.3 +6.7 47 +19 +23 1019.5 1006.0
06 19.08 В 3 50 км 10/0
[Ac trans Ci fib]
+18.8 +6.1 43 +19 +22 1019.7 1006.2
09 19.08 В 3 50 км 10/0
[Ac trans Ci fib]
+18.7 +6.5 45 +19 +20 1019.5 1006.0 +18.9
12 19.08 СВ 1 50 км 10/0
[Ac trans Ci fib]
+14.8 +7.6 62 +15 +15 1019.0 1005.3
15 19.08 СВ 1 50 км 10/0
[As op]
+13.9 +8.5 70 +14 +14 1019.8 1006.1
18 19.08 штиль 0 50 км 10/0
[As op]
+12.3 +9.1 81 +12 +12 1019.9 1006.1
21 19.08 штиль 0 50 км 10/0
[As op]
+12.2 +9.2 82 +12 +12 1019.5 1005.7 +12.2
00 20.08 штиль 0 50 км 10/0
[As op]
+15.3 +11.0 76 +15 +16 1019.1 1005.5
03 20.08 Ю 1 50 км 10/0
[As op]
+17.6 +10.1 61 +19 +21 1018.6 1005.1
06 20.08 ЮВ 1 50 км 10/0
[As op]
+18.4 +10.6 60 +20 +21 1018.8 1005.3
09 20.08 В 2 50 км 10/10 600 м
[Sc]
+18.3 +8.7 53 +19 +19 1019.2 1005.7 +18.7
12 20.08 ЮВ 2 50 км 10/8 600 м
[Sc As trans]
+16.8 +9.6 62 +17 +17 1019.9 1006.4
15 20.08 СВ 1 50 км 10/8 600 м
[Sc As trans]
+13.8 +10.4 80 +14 +14 1020.5 1006.8
18 20.08 СВ 1 50 км 10/0
[As op]
+13.0 +11.1 88 +13 +13 1020.5 1006.8
21 20.08 СВ 1 50 км {дождь} 10/0
[As op]
+11.7 +11.1 96 +11 +12 1020.8 1007.0 +11.3 0.6
00 21.08 СВ 2 50 км 8/0
[Ci fib]
+17.0 +9.1 60 +17 +22 1020.7 1007.2
03 21.08 В 1 50 км 10/0
[Ac trans Ci fib]
+19.3 +8.8 51 +21 +27 комфорт 1020.7 1007.2
06 21.08 В 2 50 км 10/0
[Ac trans Ci fib]
+22.0 +8.2 41 +23 +26 комфорт 1020.4 1007.0
09 21.08 В 1 50 км 10/0
[Ci fib]
+21.5 +7.2 40 +22 +23 комфорт 1019.4 1006.0 +22.1
12 21.08 штиль 0 50 км 3/0
[Ci fib]
+15.5 +8.9 65 +15 +15 1018.6 1005.0
15 21.08 штиль 0 50 км ясно +12.2 +11.3 94 +12 +12 1018.5 1004.8
18 21.08 штиль 0 50 км ясно +10.0 +8.1 88 +9 +9 1018.4 1004.8
21 21.08 штиль 0 50 км ясно +9.7 +8.9 95 +9 +10 1018.4 1004.5 +9.3
00 22.08 ЮЗ 1 10 км мгла ясно +13.4 +10.3 81 +14 +20 1017.9 1004.1
03 22.08 З 1 50 км ясно +22.0 +7.6 39 +23 +33 комфорт 1016.4 1003.0

 

Местоположение метеостанции Крест-Хальджай (Якутия, Россия): широта 62.82 долгота 134.40 высота над уровнем моря 115 м.

В архиве по умолчанию представлена погода в Крест-Хальджае за последнюю неделю. Архивные данные за месяц целиком и за предыдущие месяцы, начиная с января 2011 года, Вы можете получить, выбрав интересующий диапазон дат из раскрывающегося списка и нажав кнопку "Ввод!".


*Определитесь, кто Вы:
робот инопланетянин человек

Внимание! Время в таблицах - всемирное. Для получения местного времени необходимо прибавить поправку, которая равна 9 ч.

Смотрите также архив погоды в соседних городах и на ближайших метеорологических станциях:

Погода в Ытык-Кюёле (Якутия, Россия) (68 км)
Погода в Охотском Перевозе (Якутия, Россия) (120 км)
Погода в Теплом Ключе (Якутия, Россия) (122 км)
Погода в Чурапче (Якутия, Россия) (128 км)
Погода в Верхоянском Перевозе (Якутия, Россия) (133 км)
Погода в Томпо (Якутия, Россия) (144 км)
Погода в Сеген-Кюеле (Якутия, Россия) (243 км)
Погода в Намцах (Якутия, Россия) (244 км)
Погода в Амге (Якутия, Россия) (251 км)
Погода в Батамае (Якутия, Россия) (263 км)

Пояснения к столбцам:

Ветер - указаны скорость ветра в м/с - средняя за 10 мин, порывы в срок и между сроками (в фигурных скобках) и направление, откуда дует ветер: С - северный, СВ - северо-восточный, В - восточный, ЮВ - юго-восточный, Ю - южный, ЮЗ - юго-западный, З - западный, СЗ - северо-западный.
Видимость - горизонтальная дальность видимости в метрах или километрах. При видимости от 1 до 10 км при отсутствии осадков обычно наблюдается дымка, при ухудшении видимости до 1 км и менее - туман. В сухую погоду видимость может ухудшаться дымом, пылью или мглою.
Явления - указаны атмосферные явления, наблюдавшиеся в срок или в последний час перед сроком; фигурными скобками обозначены явления, наблюдавшиеся между сроками (за 1-3 часа до срока); квадратными скобками обозначены град или гололедные отложения с указанием их диаметра в мм.
Облачность - указаны через наклонную черту общая и нижняя облачность в баллах и высота нижней границы облаков в метрах; квадратными скобками обозначены формы облаков: Ci - перистые, Cs - перисто-слоистые, Cc - перисто-кучевые, Ac - высококучевые, As - высокослоистые, Sc - слоисто-кучевые, Ns - слоисто-дождевые, Cu - кучевые, Cb - кучево-дождевые. Подробнее классификацию облаков см. в Атласе облаков (PDF).
T - Температура воздуха - температура, измеренная на высоте 2 м над землей.
Td - Температура точки росы - температура, при понижении до которой содержащийся в воздухе водяной пар достигнет насыщения.
f - Относительная влажность воздуха - влажноcть воздуха, измеренная на высоте 2 м над землей.
Te - Эффективная температура - температура, которую ощущает одетый по сезону человек в тени. Характеристика душности погоды. При расчете учитывается влияние влажности воздуха и скорости ветра на теплоощущения человека.
Tes - Эффективная температура на солнце - температура, которую ощущает человек, с поправкой на солнечный нагрев. Характеристика знойности погоды. Зависит от высоты солнца над горизонтом, облачности и скорости ветра. Ночью, в пасмурную погоду, а также при ветре 12 м/с и более поправка равна нулю.
P - Атмосферное давление - приведенное к уровню моря атмосферное давление.
Po - Атмосферное давление - измеренное на уровне метеостанции атмосферное давление.
Tmin - Минимальная температура - минимум температуры воздуха на высоте 2 м над землей.
Tmax - Максимальная температура - максимум температуры воздуха на высоте 2 м над землей.
R - Количество осадков - Количество выпавших осадков за период времени, мм. При наведении курсора мыши на число - период времени, за который выпало указанное количество осадков.
R24 - Количество осадков - Количество выпавших осадков за 24 часа, мм.
S - Снежный покров - Высота снежного покрова, см. При наведении курсора мыши на число - состояние снежного покрова и степень покрытия местности в баллах.